HST 1 20580U 90037B 25141.54484844 .00005408 00000-0 20199-3 0 9999 2 20580 28.4679 225.4711 0002803 145.8629 214.2145 15.25051879728619 ISS (ZARYA) 1 25544U 98067A 25142.24225541 .00007993 00000-0 14965-3 0 9995 2 25544 51.6388 75.6081 0002453 130.9690 19.0975 15.49655797511132 CXO 1 25867U 99040B 25142.98848869 .00000640 00000-0 00000+0 0 9993 2 25867 48.9452 130.9326 8464725 309.0591 359.8940 0.37807892 27000